TimeCEST,TemperatureF,Dew PointF,Humidity,Sea Level PressureIn,VisibilityMPH,Wind Direction,Wind SpeedMPH,Gust SpeedMPH,PrecipitationIn,Events,Conditions,WindDirDegrees,DateUTC
2:00 AM,47,43,80,30.17,,SSW,4.5,,,,,200,2012-10-06 00:00:00
4:45 AM,46.4,42.8,87,30.15,-9999.0,ESE,4.6,-,N/A,,Clear,110,2012-10-06 02:45:00
5:45 AM,46.4,42.8,87,30.15,-9999.0,SE,2.3,-,N/A,,Clear,130,2012-10-06 03:45:00
6:15 AM,46.4,42.8,87,30.15,-9999.0,SSE,4.6,-,N/A,,Clear,160,2012-10-06 04:15:00
6:45 AM,46.4,42.8,87,30.15,-9999.0,Calm,Calm,-,N/A,,Clear,0,2012-10-06 04:45:00
7:00 AM,-9999,-9999,N/A,-9999,-9999.0,SSE,4.6,-,N/A,,Clear,160,2012-10-06 05:00:00
7:15 AM,46.4,42.8,87,30.15,-9999.0,SSE,2.3,-,N/A,,Clear,150,2012-10-06 05:15:00
7:45 AM,46.4,42.8,87,30.15,-9999.0,Calm,Calm,-,N/A,,Clear,0,2012-10-06 05:45:00
8:00 AM,47,43,82,30.17,16,Calm,Calm,,,,Partly Cloudy,,2012-10-06 06:00:00
8:15 AM,50.0,44.6,82,30.15,-9999.0,Calm,Calm,-,N/A,,Clear,0,2012-10-06 06:15:00
8:45 AM,53.6,46.4,77,30.15,-9999.0,SSE,3.5,-,N/A,,Clear,160,2012-10-06 06:45:00
9:15 AM,57.2,44.6,63,30.15,-9999.0,South,5.8,-,N/A,,Clear,180,2012-10-06 07:15:00
9:45 AM,59.0,46.4,63,30.15,-9999.0,South,6.9,-,N/A,,Clear,190,2012-10-06 07:45:00
10:00 AM,-9999,-9999,N/A,-9999,-9999.0,SSW,11.5,-,N/A,,Clear,200,2012-10-06 08:00:00
10:15 AM,62.6,46.4,55,30.15,-9999.0,South,6.9,-,N/A,,Clear,190,2012-10-06 08:15:00
10:45 AM,64.4,46.4,52,30.15,-9999.0,South,9.2,-,N/A,,Clear,190,2012-10-06 08:45:00
11:15 AM,66.2,42.8,43,30.15,-9999.0,South,9.2,-,N/A,,Clear,190,2012-10-06 09:15:00
11:45 AM,69.8,42.8,38,30.15,-9999.0,SSW,8.1,-,N/A,,Clear,200,2012-10-06 09:45:00
12:15 PM,69.8,42.8,38,30.15,-9999.0,South,8.1,-,N/A,,Clear,190,2012-10-06 10:15:00
12:45 PM,71.6,42.8,35,30.12,-9999.0,South,8.1,-,N/A,,Clear,190,2012-10-06 10:45:00
1:00 PM,-9999,-9999,N/A,-9999,-9999.0,South,8.1,-,N/A,,Clear,190,2012-10-06 11:00:00
1:15 PM,71.6,39.2,31,30.12,-9999.0,South,8.1,-,N/A,,Clear,190,2012-10-06 11:15:00
1:45 PM,73.4,41.0,31,30.09,-9999.0,SSW,8.1,-,N/A,,Clear,200,2012-10-06 11:45:00
2:00 PM,73,42,21,30.09,19,SSW,6.7,,,,Partly Cloudy,200,2012-10-06 12:00:00
2:15 PM,73.4,42.8,33,30.09,-9999.0,SSW,11.5,-,N/A,,Clear,210,2012-10-06 12:15:00
2:45 PM,75.2,44.6,34,30.09,-9999.0,SSW,10.4,-,N/A,,Clear,210,2012-10-06 12:45:00
3:15 PM,75.2,46.4,36,30.09,-9999.0,SW,11.5,-,N/A,,Clear,220,2012-10-06 13:15:00
3:45 PM,75.2,46.4,36,30.06,-9999.0,SSW,10.4,-,N/A,,Clear,210,2012-10-06 13:45:00
4:00 PM,-9999,-9999,N/A,-9999,-9999.0,SSW,8.1,-,N/A,,Clear,200,2012-10-06 14:00:00
4:15 PM,73.4,46.4,38,30.06,-9999.0,SSW,10.4,-,N/A,,Clear,210,2012-10-06 14:15:00
4:45 PM,73.4,46.4,38,30.04,-9999.0,SSW,11.5,-,N/A,,Clear,200,2012-10-06 14:45:00
5:15 PM,71.6,48.2,43,30.04,-9999.0,South,8.1,-,N/A,,Clear,190,2012-10-06 15:15:00
5:45 PM,69.8,48.2,46,30.04,-9999.0,South,5.8,-,N/A,,Clear,190,2012-10-06 15:45:00
6:15 PM,66.2,48.2,52,30.04,-9999.0,SSW,4.6,-,N/A,,Clear,200,2012-10-06 16:15:00
6:45 PM,64.4,48.2,56,30.04,-9999.0,West,3.5,-,N/A,,Clear,260,2012-10-06 16:45:00
7:15 PM,60.8,50.0,68,30.04,-9999.0,Calm,Calm,-,N/A,,Clear,0,2012-10-06 17:15:00
7:45 PM,59.0,48.2,67,30.04,-9999.0,Calm,Calm,-,N/A,,Clear,0,2012-10-06 17:45:00
8:00 PM,59,49,60,30.03,16,Calm,Calm,,,,Partly Cloudy,,2012-10-06 18:00:00
8:15 PM,-9999,-9999,N/A,-9999,-9999.0,North,-9999.0,-,N/A,,Unknown,0,2012-10-06 18:15:00